{"data":{"norad_id":64161,"intl_designator":"2025-112R","name":"STARLINK-34341","alt_names":[],"object_type":"PAYLOAD","status":"ACTIVE","operator":null,"country":"US","launch_date":"2025-05-27","launch_site_code":"AFWTR","launch_vehicle":null,"mission":null,"orbit_class":"UNKNOWN","rcs_meters":null,"size_class":null,"mass_kg":null,"dimensions":null,"purposes":["comms"],"wikipedia_slug":null,"has_3d_model":false,"image_url":null,"decayed_at":null,"tle_current":{"epoch":"2026-05-25T03:22:03.266112Z","epoch_age_seconds":56825,"freshness":"FRESH","line1":"1 64161U 25112R   26145.14031558 -.00002617  00000+0 -17745-3 0  9998","line2":"2 64161  97.4532 196.5443 0002282 105.2351 254.9128 15.05631202 54817","mean_motion":15.05631202,"eccentricity":0.0002282,"inclination_deg":97.4532,"raan_deg":196.5443,"arg_perigee_deg":105.2351,"mean_anomaly_deg":254.9128,"bstar":-0.00017745,"rev_number":5481,"period_min":95.640950990334,"perigee_km":547.98791317324,"apogee_km":551.1497181075,"semimajor_km":6927.7058156404,"source":"CELESTRAK","updated_at":"2026-05-25T13:38:20.305983Z"}}}